Location: Dötzum
(52.0808°N, 9.8063°E)
Time: 04:52:14
(UTC+00:00)

Cosmos 2322 Rocket - Pass Details

Date: 27 May 2022
Orbit: 833 x 850 km, 71.0° (Epoch: 26 June)

Event Time Altitude Azimuth Distance (km) Brightness Sun altitude
Rises 00:01:09 0° 257° (WSW) 3,378 5.1 -16.1°
Reaches altitude 10° 00:04:06 10° 272° (W) 2,447 4.5 -16.0°
Maximum altitude 00:08:31 23° 324° (NW) 1,702 4.3 -15.8°
Drops below altitude 10° 00:12:58 10° 16° (NNE) 2,457 6.0 -15.7°
Sets 00:15:56 0° 31° (NNE) 3,396 6.8 -15.6°
